パンスターズ彗星

C/2017 K2 ( PanSTARRS )

English version
Home page
Updated on December 9, 2019

---------------------------------------------------------------------

・ プロフィール

発見日 2017年5月21日
発見光度 20.8等
発見者 Pan-STARRS 1 telescope (Haleakala)

・ 写真集

・ 軌道要素

Epoch 2022 Dec. 7.0 TT = JDT 2459920.5
T 2022 Dec. 19.66996 TT                                 Williams
q   1.7969715            (2000.0)            P               Q
z  -0.0004771      Peri.  236.19640     +0.01818312     +0.04923216
 +/-0.0000011      Node    88.23540     -0.18096147     +0.98245372
e   1.0008574      Incl.   87.56307     -0.98332208     -0.17989129
From 1493 observations 2013 May 12-2019 Oct. 25, mean residual 0".4.

・ 星図

・ 光度変化

        m1 = 1.0 + 5 logΔ + 10.0 log r

---------------------------------------------------------------------

軌道要素はM.P.E.C. 2019-V116に掲載されたものです。
星図はステラナビゲータ Ver.10 (アストロアーツ) で作成したものです。
光度グラフはComet for Windowsで作成したものです。

---------------------------------------------------------------------

Copyright(C) Seiichi Yoshida (comet@aerith.net). All rights reserved.